User: anonymous   Login
Location: Unspecified
(0.0000°N, 0.0000°E)
Time: 04:05:30
(UTC+00:00)
Language:

NUSAT 2 - Orbit

View from above orbital plane
View from above orbital plane
View from above satellite
View from above satellite

Ground track
Ground track

The orbit data is extracted from the following two-line orbital elements,

1 41558U 16033C   18022.78978753  .00001349  00000-0  52462-4 0  9993
2 41558  97.4498 107.3132 0012142 315.5439  44.4825 15.27764549 91943
Epoch (UTC): 22 January 2018 18:57:17
Eccentricity: 0.0012142
inclination: 97.4498°
perigee height: 474 km
apogee height: 491 km
right ascension of ascending node: 107.3132°
argument of perigee: 315.5439°
revolutions per day: 15.27764549
mean anomaly at epoch: 44.4825°
orbit number at epoch: 9194

The dashed part of the orbit path shows where the satellite is in the earth's shadow,  

DLR